When you browse on this site, cookies collect data to enhance your experience and personalize the content and advertising you see.
Visit our Privacy Policy to learn more. By continuing to use the site, you agree to this use of cookies and data.
  • En España
  • Lista de países
  • Para 7 días
  • Temperatura del agua
  • Mapa Satelital
  • El tiempo en el mapa
  • Informadores
  • user-avatar
    Iniciar sesión

    Tiempo cada hora Chervonyi Kut

    Hoy, 17 Junio, Lunes

    Tiempo Temperatura Precipitaciones Viento Presión Humedad
    00:00 +18°C° 0 mm 3 mps 746 mmHg 95%
    01:00 +17°C° 0 mm 3 mps 746 mmHg 95%
    02:00 +17°C° 0 mm 3 mps 747 mmHg 95%
    03:00 +17°C° 0 mm 3 mps 747 mmHg 93%
    04:00 +17°C° 0 mm 3 mps 747 mmHg 90%
    05:00 +17°C° 0 mm 4 mps 747 mmHg 88%
    06:00 +19°C° 0 mm 4 mps 747 mmHg 80%
    07:00 +20°C° 0 mm 4 mps 747 mmHg 72%
    08:00 +22°C° 0 mm 4 mps 748 mmHg 64%
    09:00 +23°C° 0 mm 4 mps 748 mmHg 59%
    10:00 +25°C° 0 mm 4 mps 748 mmHg 54%
    11:00 +27°C° 0 mm 4 mps 748 mmHg 49%
    12:00 +27°C° 0 mm 4 mps 748 mmHg 47%
    13:00 +27°C° 0 mm 3 mps 748 mmHg 46%
    14:00 +28°C° 0 mm 3 mps 747 mmHg 45%
    15:00 +28°C° 0 mm 3 mps 747 mmHg 47%
    16:00 +27°C° 0 mm 3 mps 747 mmHg 49%
    17:00 +27°C° 0 mm 3 mps 747 mmHg 52%
    18:00 +25°C° 0 mm 2 mps 747 mmHg 58%
    19:00 +23°C° 0 mm 2 mps 747 mmHg 64%
    20:00 +21°C° 0 mm 2 mps 748 mmHg 70%
    21:00 +20°C° 0 mm 2 mps 748 mmHg 72%
    22:00 +19°C° 0 mm 2 mps 748 mmHg 73%
    23:00 +19°C° 0 mm 2 mps 748 mmHg 75%

    Mañana, 18 Junio, Martes

    Tiempo Temperatura Precipitaciones Viento Presión Humedad
    00:00 +19°C° 0 mm 1 mps 748 mmHg 76%
    01:00 +19°C° 0 mm 1 mps 748 mmHg 77%
    02:00 +19°C° 0 mm 1 mps 748 mmHg 78%
    03:00 +19°C° 0 mm 1 mps 748 mmHg 77%
    04:00 +18°C° 0 mm 0 mps 748 mmHg 77%
    05:00 +19°C° 0 mm 0 mps 748 mmHg 76%
    06:00 +20°C° 0 mm 0 mps 748 mmHg 70%
    07:00 +22°C° 0 mm 0 mps 748 mmHg 64%
    08:00 +23°C° 0 mm 0 mps 748 mmHg 58%
    09:00 +26°C° 0 mm 1 mps 748 mmHg 55%
    10:00 +27°C° 0 mm 1 mps 748 mmHg 53%
    11:00 +28°C° 0 mm 1 mps 748 mmHg 50%
    12:00 +28°C° 0 mm 1 mps 748 mmHg 51%
    13:00 +28°C° 0 mm 1 mps 747 mmHg 51%
    14:00 +28°C° 0 mm 1 mps 747 mmHg 52%
    15:00 +28°C° 0 mm 2 mps 747 mmHg 52%
    16:00 +28°C° 0 mm 2 mps 746 mmHg 53%
    17:00 +29°C° 0 mm 2 mps 746 mmHg 54%
    18:00 +27°C° 0 mm 1 mps 746 mmHg 60%
    19:00 +25°C° 0 mm 1 mps 746 mmHg 66%
    20:00 +23°C° 0 mm 1 mps 746 mmHg 72%
    21:00 +23°C° 0 mm 1 mps 746 mmHg 77%
    22:00 +22°C° 0 mm 1 mps 746 mmHg 82%
    23:00 +20°C° 0 mm 2 mps 746 mmHg 87%

    Pasado mañana, 19 Junio, Miércoles

    Tiempo Temperatura Precipitaciones Viento Presión Humedad
    00:00 +20°C° 0 mm 2 mps 746 mmHg 89%
    01:00 +20°C° 0 mm 2 mps 746 mmHg 92%
    02:00 +19°C° 0 mm 2 mps 746 mmHg 95%
    03:00 +19°C° 0 mm 2 mps 746 mmHg 94%
    04:00 +20°C° 0 mm 2 mps 746 mmHg 93%
    05:00 +20°C° 0 mm 3 mps 746 mmHg 93%
    06:00 +21°C° 0 mm 3 mps 747 mmHg 87%
    07:00 +24°C° 0 mm 3 mps 747 mmHg 81%
    08:00 +25°C° 0 mm 4 mps 747 mmHg 75%
    09:00 +26°C° 0 mm 4 mps 747 mmHg 71%
    10:00 +27°C° 0 mm 4 mps 747 mmHg 67%
    11:00 +27°C° 0 mm 4 mps 747 mmHg 63%
    12:00 +28°C° 0 mm 4 mps 747 mmHg 60%
    13:00 +29°C° 0 mm 4 mps 747 mmHg 57%
    14:00 +29°C° 0 mm 4 mps 747 mmHg 54%
    15:00 +29°C° 0 mm 4 mps 747 mmHg 57%
    16:00 +28°C° 0 mm 5 mps 746 mmHg 59%
    17:00 +28°C° 0 mm 5 mps 746 mmHg 61%
    18:00 +26°C° 0 mm 5 mps 747 mmHg 67%
    19:00 +25°C° 0 mm 4 mps 747 mmHg 73%
    20:00 +22°C° 0 mm 4 mps 747 mmHg 78%
    21:00 +21°C° 0 mm 4 mps 747 mmHg 80%
    22:00 +20°C° 0 mm 4 mps 747 mmHg 82%
    23:00 +19°C° 0 mm 3 mps 748 mmHg 84%

    20 Junio, Jueves

    Tiempo Temperatura Precipitaciones Viento Presión Humedad
    00:00 +19°C° 0 mm 3 mps 748 mmHg 84%
    01:00 +18°C° 0 mm 3 mps 748 mmHg 85%
    02:00 +17°C° 0 mm 3 mps 747 mmHg 85%
    03:00 +18°C° 0 mm 3 mps 748 mmHg 85%
    04:00 +18°C° 0 mm 4 mps 748 mmHg 85%
    05:00 +18°C° 0 mm 4 mps 748 mmHg 85%
    06:00 +20°C° 0 mm 4 mps 748 mmHg 79%
    07:00 +22°C° 0 mm 5 mps 748 mmHg 72%
    08:00 +25°C° 0 mm 5 mps 748 mmHg 66%
    09:00 +26°C° 0 mm 5 mps 748 mmHg 62%
    10:00 +27°C° 0 mm 5 mps 748 mmHg 57%
    11:00 +28°C° 0 mm 5 mps 749 mmHg 52%
    12:00 +29°C° 0 mm 5 mps 748 mmHg 51%
    13:00 +29°C° 0 mm 5 mps 748 mmHg 50%
    14:00 +29°C° 0 mm 5 mps 748 mmHg 49%
    15:00 +29°C° 0 mm 5 mps 748 mmHg 51%
    16:00 +29°C° 0 mm 5 mps 748 mmHg 54%
    17:00 +28°C° 0 mm 5 mps 748 mmHg 56%
    18:00 +26°C° 0 mm 4 mps 748 mmHg 63%
    19:00 +25°C° 0 mm 4 mps 748 mmHg 69%
    20:00 +22°C° 0 mm 4 mps 748 mmHg 75%
    21:00 +21°C° 0 mm 3 mps 748 mmHg 77%
    22:00 +20°C° 0 mm 3 mps 749 mmHg 79%
    23:00 +20°C° 0 mm 3 mps 749 mmHg 81%

    21 Junio, Viernes

    Tiempo Temperatura Precipitaciones Viento Presión Humedad
    00:00 +19°C° 0 mm 3 mps 749 mmHg 83%
    01:00 +19°C° 0 mm 3 mps 749 mmHg 85%
    02:00 +18°C° 0 mm 3 mps 749 mmHg 87%
    03:00 +18°C° 0 mm 3 mps 749 mmHg 86%
    04:00 +19°C° 0 mm 4 mps 749 mmHg 85%
    05:00 +19°C° 0 mm 4 mps 749 mmHg 85%
    06:00 +21°C° 0 mm 4 mps 749 mmHg 78%
    07:00 +23°C° 0 mm 4 mps 749 mmHg 71%
    08:00 +26°C° 0 mm 4 mps 750 mmHg 65%
    09:00 +27°C° 0 mm 4 mps 750 mmHg 60%
    10:00 +28°C° 0 mm 4 mps 750 mmHg 55%
    11:00 +29°C° 0 mm 4 mps 750 mmHg 50%
    12:00 +30°C° 0 mm 4 mps 749 mmHg 49%
    13:00 +30°C° 0 mm 4 mps 749 mmHg 47%
    14:00 +30°C° 0 mm 4 mps 749 mmHg 46%
    15:00 +30°C° 0 mm 4 mps 749 mmHg 48%
    16:00 +30°C° 0 mm 4 mps 749 mmHg 50%
    17:00 +29°C° 0 mm 4 mps 748 mmHg 53%
    18:00 +27°C° 0 mm 4 mps 749 mmHg 58%
    19:00 +26°C° 0 mm 4 mps 749 mmHg 62%
    20:00 +24°C° 0 mm 3 mps 749 mmHg 67%
    21:00 +22°C° 0 mm 3 mps 749 mmHg 69%
    22:00 +21°C° 0 mm 3 mps 749 mmHg 71%
    23:00 +20°C° 0 mm 3 mps 749 mmHg 73%

    22 Junio, Sábado

    Tiempo Temperatura Precipitaciones Viento Presión Humedad
    00:00 +20°C° 0 mm 3 mps 749 mmHg 75%
    01:00 +19°C° 0 mm 3 mps 749 mmHg 76%
    02:00 +19°C° 0 mm 3 mps 749 mmHg 78%
    03:00 +19°C° 0 mm 3 mps 749 mmHg 79%
    04:00 +19°C° 0 mm 3 mps 749 mmHg 79%
    05:00 +19°C° 0 mm 3 mps 750 mmHg 80%
    06:00 +21°C° 0 mm 3 mps 750 mmHg 73%
    07:00 +23°C° 0 mm 4 mps 750 mmHg 67%
    08:00 +26°C° 0 mm 4 mps 750 mmHg 61%
    09:00 +28°C° 0 mm 5 mps 750 mmHg 55%
    10:00 +29°C° 0 mm 5 mps 750 mmHg 49%
    11:00 +30°C° 0 mm 5 mps 750 mmHg 43%
    12:00 +32°C° 0 mm 5 mps 749 mmHg 42%
    13:00 +32°C° 0 mm 4 mps 749 mmHg 42%
    14:00 +32°C° 0 mm 4 mps 749 mmHg 41%
    15:00 +32°C° 0 mm 4 mps 749 mmHg 44%
    16:00 +32°C° 0 mm 4 mps 748 mmHg 47%
    17:00 +30°C° 0 mm 4 mps 748 mmHg 50%
    18:00 +28°C° 0 mm 4 mps 748 mmHg 55%
    19:00 +26°C° 0 mm 4 mps 748 mmHg 61%
    20:00 +25°C° 0 mm 3 mps 749 mmHg 66%
    21:00 +24°C° 0 mm 3 mps 749 mmHg 68%
    22:00 +22°C° 0 mm 3 mps 749 mmHg 69%
    23:00 +21°C° 0 mm 3 mps 749 mmHg 70%
    Mostrar más